Details From SACO - Ambrosio L V Taravella
To SABE - Aeroparque Jorge Newbery
Flight Number -
Tags Generated
Created
Modified
Stats Distance 350 nm / 648 km
Max Altitude 0 ft / 0 m
Waypoints 3
Social Downloads 7
Likes 0
Share VATSIM

Download

Looking for another format? Having issues loading an existing format? Contact us
Advertisement - Login to hide

Notes

Generated

Route

SACO P SABE

ID Type Via Altitude Latitude Longitude Leg Dist Tot Dist Heading (true) Name
O SACO APT - 0 ft / 0 m -31.32481˚ -64.20926˚ - 0 nm - -
P NDB - 0 ft / 0 m -34.54642˚ -58.43950˚ 349 nm 349 nm 125° / 122° AEROPARQUE JORGE NEWBERY NDB
O SABE APT - 0 ft / 0 m -34.55416˚ -58.42526˚ 0 nm 350 nm 123° / 123° -

Altitude Profile

Advertisement - Login to hide

Weather


0- 5 10 15 20 25 30 35+ Temperature / ° C

Clouds and Precipitation
Forecast for 2018-05-22 18:00 UTC. Updated 3 hours ago

Ground ~20,000 ft ~40,000 ft Winds

SACO

Details ICAO SACO (COR)
Name AMBROSIO L V TARAVELLA
Region Argentina
Timezone America/Argentina/Cordoba (UTC-3.0)
Stats Elevation 1,604 ft / 489 m (AMSL)
Location -31.313499° -64.204123°
Runways 2
Magnetic Variation 5.636° W

METAR

SACO 222000Z 06009KT 9999 SCT025 20/06 Q1021 NOSIG

Decode

TAF

TAF SACO 221700Z 2218/2318 05010KT CAVOK TX18/2318Z TN05/2310Z BECMG 2221/2300 05005KT CAVOK BECMG 2309/2312 02010KT 9999 SCT030

Decode

Departure Runways

ID Width Length Bearing (true) Bearing (mag) Surface Threshold Offset Overrun Length
05 148 ft / 45 m 8,091 ft / 2,466 m 44.19° 49.83° Asphalt 840 ft / 256 m 0 ft / 0 m
18 148 ft / 45 m 10,441 ft / 3,182 m 179.75° 185.39° Concrete 0 ft / 0 m 0 ft / 0 m
23 148 ft / 45 m 8,091 ft / 2,466 m 224.18° 229.82° Asphalt 0 ft / 0 m 82 ft / 25 m
36 148 ft / 45 m 10,441 ft / 3,182 m 359.75° 5.39° Concrete 0 ft / 0 m 460 ft / 140 m

SABE

Details ICAO SABE (AEP)
Name Aeroparque Jorge Newbery
Region Argentina
Timezone Unknown (UTC+0.0)
Stats Elevation 17 ft / 5 m (AMSL)
Location -34.559414° -58.415749°
Runways 1
Magnetic Variation 9.053° W

METAR

SABE 222000Z 27007KT 230V310 CAVOK 17/02 Q1020 NOSIG

Decode

TAF

TAF SABE 221700Z 2218/2318 27005KT CAVOK TX17/2318Z TN09/2310Z BECMG 2223/2301 VRB03KT BECMG 2312/2314 27005KT

Decode

Destination Runways

ID Width Length Bearing (true) Bearing (mag) Surface Threshold Offset Overrun Length
13 131 ft / 40 m 6,882 ft / 2,098 m 123.87° 132.92° Concrete 0 ft / 0 m 791 ft / 241 m
31 131 ft / 40 m 6,882 ft / 2,098 m 303.86° 312.91° Concrete 991 ft / 302 m 0 ft / 0 m

Approach Navaids

Runway Type Ident Frequency Range Bearing (true) Bearing (mag) Slope Elevation
13 Localiser AE 109.50 MHz 18 nm / 33 km 123.95° 133.01° - 17 ft / 5 m (AMSL)
13 Glidescope AE 109.50 MHz 10 nm / 19 km 124.47° 133.52° 3.00° 17 ft / 5 m (AMSL)
13 DME AE 109.50 MHz 18 nm / 33 km - - - 17 ft / 5 m (AMSL)

Popular Alternatives